This is the latest recevied weather packets stored in our database for station/object SR5MRF. If no packets are shown the sender has not sent any weather packets the latest 10 day(s).
| Time | Temp. | Humidity | Pressure | Rain* | Wind** | Luminosity | Snow |
|---|---|---|---|---|---|---|---|
| 1778046520 | 17.22° C | 66% | 1003.3 hPa | 0 mm | - | - | - |
| 1778046399 | 16.67° C | 67% | 1003.3 hPa | 0 mm | - | - | - |
| 1778045980 | 15.56° C | 71% | 1003.3 hPa | 0 mm | - | - | - |
| 1778045920 | 14.44° C | 72% | 1003.3 hPa | 0 mm | - | - | - |
| 1778045560 | 14.44° C | 73% | 1003.3 hPa | 0 mm | - | - | - |
| 1778045320 | 13.89° C | 74% | 1003.4 hPa | 0 mm | - | - | - |
| 1778045140 | 13.89° C | 74% | 1003.6 hPa | 0 mm | - | - | - |
| 1778044720 | 13.33° C | 75% | 1003.6 hPa | 0 mm | - | - | - |
| 1778044300 | 13.33° C | 76% | 1003.5 hPa | 0 mm | - | - | - |
| 1778044120 | 13.33° C | 77% | 1003.5 hPa | 0 mm | - | - | - |
| 1778043879 | 13.33° C | 77% | 1003.5 hPa | 0 mm | - | - | - |
| 1778043520 | 13.33° C | 78% | 1003.6 hPa | 0 mm | - | - | - |
| 1778043460 | 13.33° C | 78% | 1003.7 hPa | 0 mm | - | - | - |
| 1778043040 | 12.78° C | 78% | 1003.6 hPa | 0 mm | - | - | - |
| 1778042921 | 12.78° C | 79% | 1003.6 hPa | 0 mm | - | - | - |
| 1778042620 | 12.78° C | 78% | 1003.3 hPa | 0 mm | - | - | - |
| 1778042320 | 12.78° C | 78% | 1003.1 hPa | 0 mm | - | - | - |
| 1778042200 | 12.78° C | 78% | 1003.1 hPa | 0 mm | - | - | - |
| 1778041780 | 12.78° C | 78% | 1003.2 hPa | 0 mm | - | - | - |
| 1778041360 | 12.78° C | 78% | 1003.6 hPa | 0 mm | - | - | - |
| 1778041122 | 12.78° C | 78% | 1003.6 hPa | 0 mm | - | - | - |
| 1778040940 | 12.78° C | 77% | 1003.3 hPa | 0 mm | - | - | - |
| 1778040520 | 12.78° C | 77% | 1003.4 hPa | 0 mm | - | - | - |
| 1778040100 | 12.22° C | 77% | 1003.6 hPa | 0 mm | - | - | - |
| 1778039921 | 12.22° C | 77% | 1003.7 hPa | 0 mm | - | - | - |
* Rain latest hour (hover to see other rain measurements)
** Current wind speed in m/s (hover to see current wind gust speed)